| time (UTC) | temp F | wind direction | speed MPH | gust MPH | rain 1hr in | rain 24hr in | rain mn in | humidity % | barometer mb |
| 20260905150515 | 71 | 349 | 2.0 | 12.0 | 0.00 | 0.01 | 0.01 | 72 | 1011.0 |
| 20260905150010 | 71 | 342 | 5.0 | 12.0 | 0.00 | 0.01 | 0.01 | 71 | 1011.0 |
| 20260905145507 | 70 | 348 | 3.0 | 10.0 | 0.00 | 0.01 | 0.01 | 75 | 1011.0 |
| 20260905145006 | 70 | 341 | 3.0 | 8.0 | 0.00 | 0.01 | 0.01 | 74 | 1011.1 |
| 20260905144517 | 70 | 1 | 3.0 | 8.0 | 0.00 | 0.01 | 0.01 | 77 | 1011.1 |
| 20260905144006 | 70 | 279 | 4.0 | 8.0 | 0.00 | 0.01 | 0.01 | 77 | 1011.2 |
| 20260905143510 | 69 | 346 | 2.0 | 8.0 | 0.00 | 0.01 | 0.01 | 77 | 1011.2 |
| 20260905143026 | 69 | 360 | 4.0 | 7.0 | 0.00 | 0.01 | 0.01 | 78 | 1011.1 |
| 20260905142509 | 70 | 356 | 3.0 | 7.0 | 0.00 | 0.01 | 0.01 | 77 | 1011.2 |
| 20260905142013 | 70 | 5 | 3.0 | 9.0 | 0.00 | 0.01 | 0.01 | 77 | 1011.2 |
| 20260905141530 | 69 | 1 | 2.0 | 9.0 | 0.00 | 0.01 | 0.01 | 78 | 1011.3 |
| 20260905141012 | 69 | 343 | 3.0 | 7.0 | 0.00 | 0.01 | 0.01 | 78 | 1011.4 |
| 20260905140512 | 69 | 343 | 2.0 | 8.0 | 0.00 | 0.01 | 0.01 | 79 | 1011.4 |
| 20260905140029 | 69 | 306 | 3.0 | 8.0 | 0.00 | 0.01 | 0.01 | 79 | 1011.6 |
| 20260905135513 | 69 | 356 | 4.0 | 7.0 | 0.00 | 0.01 | 0.01 | 79 | 1011.5 |
| 20260905135013 | 68 | 309 | 1.0 | 7.0 | 0.00 | 0.01 | 0.01 | 82 | 1011.5 |
| 20260905134514 | 67 | 360 | 1.0 | 3.0 | 0.00 | 0.01 | 0.01 | 84 | 1011.5 |
| 20260905134008 | 66 | 328 | 1.0 | 3.0 | 0.00 | 0.01 | 0.01 | 86 | 1011.5 |
| 20260905133509 | 65 | 337 | 1.0 | 3.0 | 0.00 | 0.01 | 0.01 | 91 | 1011.6 |
| 20260905133020 | 64 | 8 | 0.0 | 2.0 | 0.00 | 0.01 | 0.01 | 92 | 1011.5 |
| 20260905132510 | 63 | 70 | 0.0 | 2.0 | 0.00 | 0.01 | 0.01 | 93 | 1011.5 |
| 20260905132011 | 63 | 74 | 0.0 | 2.0 | 0.00 | 0.01 | 0.01 | 93 | 1011.5 |
| 20260905131528 | 63 | 101 | 1.0 | 3.0 | 0.00 | 0.01 | 0.01 | 93 | 1011.6 |
| 20260905131014 | 63 | 93 | 1.0 | 3.0 | 0.00 | 0.01 | 0.01 | 93 | 1011.6 |
| 20260905130516 | 63 | 110 | 0.0 | 2.0 | 0.00 | 0.01 | 0.01 | 92 | 1011.6 |
| 20260905130006 | 63 | 111 | 0.0 | 2.0 | 0.00 | 0.01 | 0.01 | 91 | 1011.5 |
| 20260905125504 | 63 | 338 | 0.0 | 1.0 | 0.00 | 0.01 | 0.01 | 91 | 1011.5 |
| 20260905125006 | 63 | 338 | 0.0 | 1.0 | 0.00 | 0.01 | 0.01 | 92 | 1011.4 |
| 20260905124510 | 63 | 338 | 0.0 | 2.0 | 0.00 | 0.01 | 0.01 | 93 | 1011.4 |
| 20260905124006 | 62 | 356 | 0.0 | 2.0 | 0.00 | 0.01 | 0.01 | 94 | 1011.3 |
| 20260905123506 | 62 | 356 | 0.0 | 0.0 | 0.00 | 0.01 | 0.01 | 95 | 1011.3 |
| 20260905123020 | 62 | 356 | 0.0 | 0.0 | 0.00 | 0.01 | 0.01 | 95 | 1011.4 |
| 20260905122513 | 61 | 355 | 0.0 | 0.0 | 0.00 | 0.01 | 0.01 | 96 | 1011.3 |
| 20260905122010 | 61 | 355 | 0.0 | 0.0 | 0.00 | 0.01 | 0.01 | 96 | 1011.2 |
| 20260905121527 | 60 | 355 | 0.0 | 0.0 | 0.00 | 0.01 | 0.01 | 96 | 1011.2 |
| 20260905121003 | 60 | 352 | 0.0 | 2.0 | 0.00 | 0.01 | 0.01 | 96 | 1011.0 |
| 20260905120503 | 60 | 340 | 0.0 | 3.0 | 0.00 | 0.01 | 0.01 | 96 | 1010.9 |
| 20260905120005 | 60 | 339 | 0.0 | 3.0 | 0.00 | 0.01 | 0.01 | 96 | 1010.9 |
| 20260905115502 | 60 | 94 | 1.0 | 3.0 | 0.00 | 0.01 | 0.01 | 96 | 1011.0 |
| 20260905115006 | 61 | 96 | 0.0 | 1.0 | 0.00 | 0.01 | 0.01 | 97 | 1010.9 |
| 20260905114507 | 61 | 94 | 0.0 | 2.0 | 0.00 | 0.01 | 0.01 | 97 | 1010.8 |
| 20260905114003 | 60 | 94 | 0.0 | 2.0 | 0.00 | 0.01 | 0.01 | 97 | 1010.8 |
| 20260905113504 | 59 | 114 | 0.0 | 1.0 | 0.00 | 0.01 | 0.01 | 97 | 1010.8 |
| 20260905113012 | 58 | 101 | 0.0 | 1.0 | 0.00 | 0.01 | 0.01 | 97 | 1010.7 |
| 20260905112505 | 58 | 101 | 0.0 | 2.0 | 0.00 | 0.01 | 0.01 | 97 | 1010.8 |
| 20260905112013 | 57 | 103 | 1.0 | 2.0 | 0.00 | 0.01 | 0.01 | 97 | 1010.9 |
| 20260905111520 | 57 | 105 | 0.0 | 1.0 | 0.00 | 0.01 | 0.01 | 97 | 1010.8 |
| 20260905111011 | 57 | 105 | 0.0 | 1.0 | 0.00 | 0.01 | 0.01 | 97 | 1010.8 |
| 20260905110514 | 56 | 94 | 0.0 | 1.0 | 0.00 | 0.01 | 0.01 | 97 | 1010.7 |
| 20260905110024 | 56 | 94 | 0.0 | 1.0 | 0.00 | 0.01 | 0.01 | 97 | 1010.6 |
| 20260905105504 | 56 | 94 | 0.0 | 1.0 | 0.00 | 0.01 | 0.01 | 97 | 1010.6 |
| 20260905105007 | 56 | 94 | 0.0 | 1.0 | 0.00 | 0.01 | 0.01 | 97 | 1010.6 |
| 20260905104504 | 55 | 94 | 0.0 | 0.0 | 0.00 | 0.01 | 0.01 | 97 | 1010.4 |
| 20260905104003 | 55 | 94 | 0.0 | 0.0 | 0.00 | 0.01 | 0.01 | 97 | 1010.5 |
| 20260905103504 | 56 | 94 | 0.0 | 0.0 | 0.00 | 0.01 | 0.01 | 97 | 1010.6 |
| 20260905103014 | 56 | 94 | 0.0 | 0.0 | 0.00 | 0.01 | 0.01 | 97 | 1010.4 |
| 20260905102507 | 56 | 94 | 0.0 | 0.0 | 0.00 | 0.01 | 0.01 | 97 | 1010.4 |
| 20260905102005 | 56 | 94 | 0.0 | 0.0 | 0.00 | 0.01 | 0.01 | 97 | 1010.4 |
| 20260905101522 | 56 | 94 | 0.0 | 0.0 | 0.00 | 0.01 | 0.01 | 97 | 1010.4 |
| 20260905101013 | 56 | 94 | 0.0 | 0.0 | 0.01 | 0.01 | 0.01 | 97 | 1010.2 |
| 20260905100508 | 56 | 94 | 0.0 | 1.0 | 0.01 | 0.01 | 0.01 | 97 | 1010.2 |
| 20260905100031 | 55 | 94 | 0.0 | 1.0 | 0.01 | 0.01 | 0.01 | 97 | 1010.2 |
| 20260905095512 | 55 | 326 | 0.0 | 0.0 | 0.01 | 0.01 | 0.01 | 97 | 1010.1 |
| 20260905095018 | 55 | 326 | 0.0 | 0.0 | 0.01 | 0.01 | 0.01 | 97 | 1010.1 |
| 20260905094530 | 56 | 326 | 0.0 | 0.0 | 0.01 | 0.01 | 0.01 | 97 | 1010.0 |
| 20260905094003 | 56 | 326 | 0.0 | 0.0 | 0.01 | 0.01 | 0.01 | 97 | 1010.0 |
| 20260905093503 | 56 | 326 | 0.0 | 0.0 | 0.01 | 0.01 | 0.01 | 97 | 1009.9 |
| 20260905093006 | 56 | 326 | 0.0 | 2.0 | 0.01 | 0.01 | 0.01 | 97 | 1009.9 |
| 20260905092502 | 55 | 326 | 0.0 | 2.0 | 0.01 | 0.01 | 0.01 | 97 | 1010.0 |
| 20260905092006 | 55 | 217 | 0.0 | 0.0 | 0.01 | 0.01 | 0.01 | 97 | 1009.9 |
| 20260905091514 | 55 | 217 | 0.0 | 0.0 | 0.01 | 0.01 | 0.01 | 97 | 1009.8 |
| 20260905091007 | 55 | 86 | 0.0 | 0.0 | 0.00 | 0.00 | 0.00 | 97 | 1009.8 |
| 20260905090507 | 55 | 86 | 0.0 | 0.0 | 0.00 | 0.00 | 0.00 | 97 | 1009.8 |
| 20260905090019 | 55 | 86 | 0.0 | 0.0 | 0.00 | 0.00 | 0.00 | 97 | 1009.9 |
| 20260905085511 | 55 | 86 | 0.0 | 0.0 | 0.00 | 0.00 | 0.00 | 97 | 1009.9 |
| 20260905085011 | 56 | 86 | 0.0 | 0.0 | 0.00 | 0.00 | 0.00 | 97 | 1009.9 |
| 20260905084527 | 56 | 86 | 0.0 | 0.0 | 0.00 | 0.00 | 0.00 | 97 | 1009.9 |
| 20260905084014 | 56 | 86 | 0.0 | 0.0 | 0.00 | 0.00 | 0.00 | 97 | 1009.9 |
| 20260905083515 | 56 | 86 | 0.0 | 0.0 | 0.00 | 0.00 | 0.00 | 97 | 1010.0 |
| 20260905083030 | 56 | 86 | 0.0 | 0.0 | 0.00 | 0.00 | 0.00 | 97 | 1010.0 |
| 20260905082516 | 56 | 86 | 0.0 | 1.0 | 0.00 | 0.00 | 0.00 | 97 | 1009.9 |
| 20260905082004 | 56 | 87 | 0.0 | 1.0 | 0.00 | 0.00 | 0.00 | 97 | 1009.8 |
| 20260905081513 | 56 | 86 | 0.0 | 0.0 | 0.00 | 0.00 | 0.00 | 97 | 1009.9 |
| 20260905081004 | 56 | 86 | 0.0 | 0.0 | 0.00 | 0.00 | 0.00 | 97 | 1009.9 |
| 20260905080505 | 56 | 86 | 0.0 | 0.0 | 0.00 | 0.00 | 0.00 | 97 | 1009.8 |
| 20260905080031 | 57 | 86 | 0.0 | 0.0 | 0.00 | 0.00 | 0.00 | 97 | 1009.9 |
| 20260905075509 | 57 | 86 | 0.0 | 0.0 | 0.00 | 0.00 | 0.00 | 97 | 1009.9 |
| 20260905075008 | 57 | 86 | 0.0 | 0.0 | 0.00 | 0.00 | 0.00 | 97 | 1009.9 |
| 20260905074524 | 57 | 86 | 0.0 | 0.0 | 0.00 | 0.00 | 0.00 | 97 | 1009.9 |
| 20260905074013 | 57 | 86 | 0.0 | 0.0 | 0.00 | 0.00 | 0.00 | 97 | 1009.9 |
| 20260905073510 | 57 | 86 | 0.0 | 0.0 | 0.00 | 0.00 | 0.00 | 97 | 1009.9 |
| 20260905073033 | 57 | 86 | 0.0 | 0.0 | 0.00 | 0.00 | 0.00 | 97 | 1010.0 |
| 20260905072514 | 57 | 86 | 0.0 | 1.0 | 0.00 | 0.00 | 0.00 | 97 | 1010.0 |
| 20260905072016 | 57 | 86 | 0.0 | 1.0 | 0.00 | 0.00 | 0.00 | 96 | 1010.0 |
| 20260905071528 | 57 | 229 | 0.0 | 0.0 | 0.00 | 0.00 | 0.00 | 97 | 1010.0 |
| 20260905071015 | 57 | 229 | 0.0 | 0.0 | 0.00 | 0.00 | 0.00 | 97 | 1010.1 |
| 20260905070504 | 57 | 229 | 0.0 | 2.0 | 0.00 | 0.00 | 0.00 | 97 | 1010.1 |
| 20260905070026 | 57 | 229 | 0.0 | 2.0 | 0.00 | 0.00 | 0.00 | 96 | 1010.1 |
| 20260905065507 | 57 | 197 | 0.0 | 2.0 | 0.00 | 0.00 | 0.00 | 96 | 1010.2 |
| 20260905065004 | 58 | 297 | 0.0 | 0.0 | 0.00 | 0.00 | 0.00 | 97 | 1010.3 |
| 20260905064516 | 58 | 262 | 0.0 | 0.0 | 0.00 | 0.00 | 0.00 | 97 | 1010.3 |
| 20260905064009 | 58 | 262 | 0.0 | 0.0 | 0.00 | 0.00 | 0.00 | 97 | 1010.2 |
| 20260905063510 | 58 | 293 | 0.0 | 0.0 | 0.00 | 0.00 | 0.00 | 97 | 1010.3 |
| 20260905063028 | 58 | 293 | 0.0 | 0.0 | 0.00 | 0.00 | 0.00 | 97 | 1010.3 |
| 20260905062514 | 58 | 293 | 0.0 | 0.0 | 0.00 | 0.00 | 0.00 | 97 | 1010.3 |
| 20260905062014 | 58 | 250 | 0.0 | 0.0 | 0.00 | 0.00 | 0.00 | 97 | 1010.3 |
| 20260905061532 | 58 | 250 | 0.0 | 0.0 | 0.00 | 0.00 | 0.00 | 97 | 1010.3 |
| 20260905061014 | 58 | 250 | 0.0 | 0.0 | 0.00 | 0.00 | 0.00 | 97 | 1010.3 |
| 20260905060516 | 58 | 344 | 0.0 | 0.0 | 0.00 | 0.00 | 0.00 | 96 | 1010.4 |
| 20260905060035 | 58 | 344 | 0.0 | 0.0 | 0.00 | 0.00 | 0.00 | 96 | 1010.3 |
| 20260905055506 | 58 | 344 | 0.0 | 0.0 | 0.00 | 0.00 | 0.00 | 96 | 1010.3 |
| 20260905055005 | 58 | 345 | 0.0 | 0.0 | 0.00 | 0.00 | 0.00 | 96 | 1010.4 |
| 20260905054533 | 59 | 344 | 0.0 | 0.0 | 0.00 | 0.00 | 0.00 | 96 | 1010.4 |
| 20260905054008 | 59 | 344 | 0.0 | 0.0 | 0.00 | 0.00 | 0.00 | 96 | 1010.4 |
| 20260905053509 | 59 | 270 | 0.0 | 0.0 | 0.00 | 0.00 | 0.00 | 96 | 1010.5 |
| 20260905053003 | 59 | 270 | 0.0 | 0.0 | 0.00 | 0.00 | 0.00 | 96 | 1010.6 |
| 20260905052502 | 59 | 347 | 0.0 | 0.0 | 0.00 | 0.00 | 0.00 | 96 | 1010.6 |
| 20260905052004 | 59 | 347 | 0.0 | 0.0 | 0.00 | 0.00 | 0.00 | 96 | 1010.6 |
| 20260905051505 | 59 | 347 | 0.0 | 0.0 | 0.00 | 0.00 | 0.00 | 96 | 1010.7 |
| 20260905051004 | 59 | 347 | 0.0 | 0.0 | 0.00 | 0.00 | 0.00 | 96 | 1010.8 |
| 20260905050506 | 59 | 347 | 0.0 | 0.0 | 0.00 | 0.00 | 0.00 | 96 | 1010.9 |
| 20260905050006 | 59 | 347 | 0.0 | 0.0 | 0.00 | 0.00 | 0.00 | 96 | 1010.9 |
| 20260905045503 | 59 | 347 | 0.0 | 0.0 | 0.00 | 0.00 | 0.00 | 96 | 1010.9 |
| 20260905045006 | 59 | 346 | 0.0 | 0.0 | 0.00 | 0.00 | 0.00 | 96 | 1010.9 |
| 20260905044518 | 59 | 351 | 0.0 | 0.0 | 0.00 | 0.00 | 0.00 | 96 | 1010.9 |
| 20260905044006 | 59 | 351 | 0.0 | 0.0 | 0.00 | 0.00 | 0.00 | 96 | 1010.9 |
| 20260905043506 | 59 | 353 | 0.0 | 0.0 | 0.00 | 0.00 | 0.00 | 95 | 1010.8 |
| 20260905043018 | 59 | 353 | 0.0 | 0.0 | 0.00 | 0.00 | 0.00 | 96 | 1010.9 |
| 20260905042510 | 60 | 353 | 0.0 | 0.0 | 0.00 | 0.00 | 0.00 | 96 | 1010.9 |
| 20260905042010 | 60 | 353 | 0.0 | 0.0 | 0.00 | 0.00 | 0.00 | 96 | 1010.7 |
| 20260905041526 | 60 | 352 | 0.0 | 0.0 | 0.00 | 0.00 | 0.00 | 96 | 1010.6 |
| 20260905041004 | 60 | 352 | 0.0 | 0.0 | 0.00 | 0.00 | 0.00 | 96 | 1010.6 |
| 20260905040504 | 60 | 352 | 0.0 | 0.0 | 0.00 | 0.00 | 0.00 | 95 | 1010.7 |
| 20260905040005 | 60 | 352 | 0.0 | 0.0 | 0.00 | 0.00 | 0.00 | 95 | 1010.7 |
| 20260905035504 | 60 | 352 | 0.0 | 0.0 | 0.00 | 0.00 | 0.00 | 95 | 1010.7 |
| 20260905035004 | 60 | 352 | 0.0 | 0.0 | 0.00 | 0.00 | 0.00 | 95 | 1010.8 |
| 20260905034506 | 60 | 352 | 0.0 | 0.0 | 0.00 | 0.00 | 0.00 | 95 | 1010.8 |
| 20260905034004 | 61 | 352 | 0.0 | 0.0 | 0.00 | 0.00 | 0.00 | 95 | 1010.9 |
| 20260905033507 | 61 | 352 | 0.0 | 0.0 | 0.00 | 0.00 | 0.00 | 95 | 1010.8 |
| 20260905033023 | 61 | 352 | 0.0 | 0.0 | 0.00 | 0.00 | 0.00 | 94 | 1010.9 |
| 20260905032508 | 61 | 352 | 0.0 | 0.0 | 0.00 | 0.00 | 0.00 | 94 | 1010.8 |
| 20260905032011 | 61 | 352 | 0.0 | 0.0 | 0.00 | 0.00 | 0.00 | 94 | 1010.7 |
| 20260905031522 | 61 | 352 | 0.0 | 0.0 | 0.00 | 0.00 | 0.00 | 94 | 1010.7 |
| 20260905031009 | 61 | 352 | 0.0 | 0.0 | 0.00 | 0.00 | 0.00 | 94 | 1010.6 |
| 20260905030510 | 61 | 352 | 0.0 | 0.0 | 0.00 | 0.00 | 0.00 | 94 | 1010.6 |
| 20260905030032 | 61 | 352 | 0.0 | 0.0 | 0.00 | 0.00 | 0.00 | 94 | 1010.6 |
| 20260905025503 | 61 | 352 | 0.0 | 0.0 | 0.00 | 0.00 | 0.00 | 93 | 1010.6 |
| 20260905025006 | 62 | 352 | 0.0 | 0.0 | 0.00 | 0.00 | 0.00 | 93 | 1010.4 |
| 20260905024504 | 62 | 352 | 0.0 | 0.0 | 0.00 | 0.00 | 0.00 | 93 | 1010.4 |
| 20260905024004 | 62 | 352 | 0.0 | 0.0 | 0.00 | 0.00 | 0.00 | 93 | 1010.4 |
| 20260905023504 | 62 | 221 | 0.0 | 0.0 | 0.00 | 0.00 | 0.00 | 93 | 1010.4 |
| 20260905023012 | 62 | 221 | 0.0 | 0.0 | 0.00 | 0.00 | 0.00 | 93 | 1010.4 |
| 20260905022506 | 62 | 220 | 0.0 | 0.0 | 0.00 | 0.00 | 0.00 | 93 | 1010.4 |
| 20260905022007 | 63 | 210 | 0.0 | 0.0 | 0.00 | 0.00 | 0.00 | 93 | 1010.5 |
| 20260905021516 | 62 | 210 | 0.0 | 0.0 | 0.00 | 0.00 | 0.00 | 93 | 1010.6 |
| 20260905021008 | 62 | 117 | 0.0 | 0.0 | 0.00 | 0.00 | 0.00 | 92 | 1010.7 |
| 20260905020507 | 63 | 63 | 0.0 | 0.0 | 0.00 | 0.00 | 0.00 | 92 | 1010.8 |
| 20260905020027 | 63 | 62 | 0.0 | 0.0 | 0.00 | 0.00 | 0.00 | 92 | 1010.7 |
| 20260905015511 | 63 | 62 | 0.0 | 0.0 | 0.00 | 0.00 | 0.00 | 92 | 1010.8 |
| 20260905015016 | 63 | 62 | 0.0 | 0.0 | 0.00 | 0.00 | 0.00 | 91 | 1010.9 |
| 20260905014530 | 63 | 67 | 0.0 | 0.0 | 0.00 | 0.00 | 0.00 | 91 | 1010.9 |
| 20260905014004 | 63 | 67 | 0.0 | 0.0 | 0.00 | 0.00 | 0.00 | 91 | 1010.9 |
| 20260905013503 | 63 | 67 | 0.0 | 0.0 | 0.00 | 0.00 | 0.00 | 91 | 1010.9 |
| 20260905013008 | 63 | 67 | 0.0 | 0.0 | 0.00 | 0.00 | 0.00 | 90 | 1011.0 |
| 20260905012504 | 64 | 67 | 0.0 | 0.0 | 0.00 | 0.00 | 0.00 | 90 | 1010.9 |
| 20260905012004 | 64 | 60 | 0.0 | 0.0 | 0.00 | 0.00 | 0.00 | 90 | 1010.9 |
| 20260905011518 | 64 | 59 | 0.0 | 0.0 | 0.00 | 0.00 | 0.00 | 90 | 1010.9 |
| 20260905011007 | 64 | 60 | 0.0 | 0.0 | 0.00 | 0.00 | 0.00 | 90 | 1010.9 |
| 20260905010508 | 64 | 1 | 0.0 | 0.0 | 0.00 | 0.00 | 0.00 | 90 | 1010.8 |
| 20260905010018 | 64 | 355 | 0.0 | 0.0 | 0.00 | 0.00 | 0.00 | 89 | 1010.8 |
| 20260905005508 | 65 | 355 | 0.0 | 0.0 | 0.00 | 0.00 | 0.00 | 89 | 1010.8 |
| 20260905005012 | 65 | 355 | 0.0 | 0.0 | 0.00 | 0.00 | 0.00 | 89 | 1010.9 |
| 20260905004527 | 65 | 342 | 0.0 | 0.0 | 0.00 | 0.00 | 0.00 | 89 | 1010.8 |
| 20260905004017 | 65 | 341 | 0.0 | 0.0 | 0.00 | 0.00 | 0.00 | 89 | 1010.6 |
| 20260905003514 | 65 | 342 | 0.0 | 0.0 | 0.00 | 0.00 | 0.00 | 89 | 1010.8 |
| 20260905003031 | 65 | 342 | 0.0 | 0.0 | 0.00 | 0.00 | 0.00 | 89 | 1010.7 |
| 20260905002514 | 66 | 342 | 0.0 | 0.0 | 0.00 | 0.00 | 0.00 | 88 | 1010.7 |
| 20260905002006 | 66 | 342 | 0.0 | 0.0 | 0.00 | 0.00 | 0.00 | 88 | 1010.7 |
| 20260905001509 | 66 | 341 | 0.0 | 0.0 | 0.00 | 0.00 | 0.00 | 88 | 1010.7 |
| 20260905001004 | 66 | 342 | 0.0 | 0.0 | 0.00 | 0.00 | 0.00 | 87 | 1010.6 |
| 20260905000507 | 67 | 342 | 0.0 | 0.0 | 0.00 | 0.00 | 0.00 | 87 | 1010.5 |
| 20260905000014 | 67 | 342 | 0.0 | 0.0 | 0.00 | 0.00 | 0.00 | 87 | 1010.5 |
| 20260904235509 | 67 | 342 | 0.0 | 0.0 | 0.00 | 0.00 | 0.00 | 87 | 1010.4 |
| 20260904235010 | 67 | 342 | 0.0 | 0.0 | 0.00 | 0.00 | 0.00 | 86 | 1010.4 |
| 20260904234532 | 67 | 341 | 0.0 | 0.0 | 0.00 | 0.00 | 0.00 | 86 | 1010.4 |
| 20260904234015 | 68 | 342 | 0.0 | 0.0 | 0.00 | 0.00 | 0.00 | 85 | 1010.4 |
| 20260904233512 | 68 | 335 | 0.0 | 0.0 | 0.00 | 0.00 | 0.00 | 85 | 1010.4 |
| 20260904233025 | 68 | 332 | 0.0 | 0.0 | 0.00 | 0.00 | 0.00 | 84 | 1010.4 |
| 20260904232512 | 69 | 332 | 0.0 | 0.0 | 0.00 | 0.00 | 0.00 | 84 | 1010.3 |
| 20260904232015 | 69 | 333 | 0.0 | 0.0 | 0.00 | 0.00 | 0.00 | 83 | 1010.3 |
| 20260904231532 | 70 | 333 | 0.0 | 0.0 | 0.00 | 0.00 | 0.00 | 82 | 1010.3 |
| 20260904231017 | 71 | 335 | 0.0 | 0.0 | 0.00 | 0.00 | 0.00 | 81 | 1010.1 |
| 20260904230505 | 71 | 335 | 0.0 | 0.0 | 0.00 | 0.00 | 0.00 | 80 | 1010.1 |
| 20260904230011 | 72 | 332 | 0.0 | 1.0 | 0.00 | 0.00 | 0.00 | 79 | 1010.1 |
| 20260904225506 | 73 | 333 | 0.0 | 1.0 | 0.00 | 0.00 | 0.00 | 76 | 1010.1 |
| 20260904225008 | 74 | 4 | 0.0 | 0.0 | 0.00 | 0.00 | 0.00 | 76 | 1010.0 |
| 20260904224518 | 74 | 4 | 0.0 | 0.0 | 0.00 | 0.00 | 0.00 | 75 | 1009.9 |
| 20260904224011 | 74 | 4 | 0.0 | 1.0 | 0.00 | 0.00 | 0.00 | 73 | 1009.8 |
| 20260904223510 | 75 | 4 | 0.0 | 1.0 | 0.00 | 0.00 | 0.00 | 75 | 1009.9 |
| 20260904223024 | 75 | 4 | 0.0 | 1.0 | 0.00 | 0.00 | 0.00 | 74 | 1010.0 |
| 20260904222514 | 76 | 4 | 0.0 | 3.0 | 0.00 | 0.00 | 0.00 | 76 | 1009.9 |
| 20260904222015 | 76 | 4 | 0.0 | 3.0 | 0.00 | 0.00 | 0.00 | 71 | 1009.8 |
| 20260904221533 | 76 | 349 | 0.0 | 4.0 | 0.00 | 0.00 | 0.00 | 74 | 1009.6 |
| 20260904221016 | 76 | 351 | 0.0 | 4.0 | 0.00 | 0.00 | 0.00 | 71 | 1009.6 |
| 20260904220516 | 75 | 350 | 1.0 | 4.0 | 0.00 | 0.00 | 0.00 | 74 | 1009.7 |
| 20260904220034 | 76 | 354 | 0.0 | 1.0 | 0.00 | 0.00 | 0.00 | 71 | 1009.7 |
| 20260904215515 | 76 | 354 | 0.0 | 3.0 | 0.00 | 0.00 | 0.00 | 72 | 1009.7 |
| 20260904215006 | 77 | 354 | 0.0 | 3.0 | 0.00 | 0.00 | 0.00 | 68 | 1009.7 |
| 20260904214515 | 77 | 326 | 0.0 | 3.0 | 0.00 | 0.00 | 0.00 | 66 | 1009.7 |
| 20260904214008 | 77 | 347 | 0.0 | 3.0 | 0.00 | 0.00 | 0.00 | 66 | 1009.8 |
| 20260904213511 | 77 | 278 | 1.0 | 2.0 | 0.00 | 0.00 | 0.00 | 63 | 1009.7 |
| 20260904213025 | 78 | 353 | 0.0 | 4.0 | 0.00 | 0.00 | 0.00 | 64 | 1009.7 |
| 20260904212511 | 78 | 356 | 2.0 | 4.0 | 0.00 | 0.00 | 0.00 | 61 | 1009.7 |
| 20260904212012 | 78 | 326 | 2.0 | 5.0 | 0.00 | 0.00 | 0.00 | 62 | 1009.7 |
| 20260904211526 | 78 | 1 | 2.0 | 5.0 | 0.00 | 0.00 | 0.00 | 60 | 1009.7 |
| 20260904211012 | 78 | 351 | 1.0 | 3.0 | 0.00 | 0.00 | 0.00 | 61 | 1009.7 |
| 20260904210512 | 78 | 314 | 0.0 | 3.0 | 0.00 | 0.00 | 0.00 | 64 | 1009.8 |
| 20260904210031 | 78 | 318 | 2.0 | 3.0 | 0.00 | 0.00 | 0.00 | 61 | 1009.8 |
| 20260904205516 | 78 | 324 | 0.0 | 2.0 | 0.00 | 0.00 | 0.00 | 64 | 1009.8 |
| 20260904205016 | 79 | 308 | 1.0 | 2.0 | 0.00 | 0.00 | 0.00 | 60 | 1009.7 |
| 20260904204534 | 79 | 319 | 0.0 | 2.0 | 0.00 | 0.00 | 0.00 | 59 | 1009.7 |
| 20260904204018 | 79 | 335 | 0.0 | 2.0 | 0.00 | 0.00 | 0.00 | 60 | 1009.6 |
| 20260904203514 | 79 | 343 | 1.0 | 6.0 | 0.00 | 0.00 | 0.00 | 59 | 1009.6 |
| 20260904203018 | 80 | 321 | 1.0 | 7.0 | 0.00 | 0.00 | 0.00 | 58 | 1009.6 |
| 20260904202508 | 80 | 359 | 2.0 | 7.0 | 0.00 | 0.00 | 0.00 | 57 | 1009.6 |
| 20260904202010 | 80 | 338 | 3.0 | 7.0 | 0.00 | 0.00 | 0.00 | 56 | 1009.6 |
| 20260904201524 | 80 | 345 | 1.0 | 6.0 | 0.00 | 0.00 | 0.00 | 56 | 1009.6 |
| 20260904201013 | 80 | 360 | 2.0 | 7.0 | 0.00 | 0.00 | 0.00 | 57 | 1009.6 |
| 20260904200515 | 80 | 18 | 2.0 | 7.0 | 0.00 | 0.00 | 0.00 | 57 | 1009.6 |
| 20260904200029 | 80 | 10 | 3.0 | 7.0 | 0.00 | 0.00 | 0.00 | 58 | 1009.8 |
| 20260904195516 | 80 | 337 | 2.0 | 7.0 | 0.00 | 0.00 | 0.00 | 58 | 1009.9 |
| 20260904195014 | 80 | 3 | 3.0 | 6.0 | 0.00 | 0.00 | 0.00 | 56 | 1009.9 |
| 20260904194529 | 80 | 359 | 2.0 | 6.0 | 0.00 | 0.00 | 0.00 | 55 | 1009.9 |
| 20260904194017 | 81 | 337 | 2.0 | 7.0 | 0.00 | 0.00 | 0.00 | 54 | 1010.0 |
| 20260904193514 | 81 | 359 | 2.0 | 8.0 | 0.00 | 0.00 | 0.00 | 52 | 1009.8 |
| 20260904193034 | 82 | 360 | 3.0 | 8.0 | 0.00 | 0.00 | 0.00 | 53 | 1009.8 |
| 20260904192519 | 82 | 297 | 1.0 | 8.0 | 0.00 | 0.00 | 0.00 | 52 | 1009.7 |
| 20260904192021 | 82 | 253 | 3.0 | 7.0 | 0.00 | 0.00 | 0.00 | 51 | 1009.7 |
| 20260904191519 | 81 | 354 | 2.0 | 6.0 | 0.00 | 0.00 | 0.00 | 54 | 1009.7 |
| 20260904191008 | 82 | 352 | 3.0 | 6.0 | 0.00 | 0.00 | 0.00 | 54 | 1009.8 |
| 20260904190514 | 81 | 268 | 1.0 | 4.0 | 0.00 | 0.00 | 0.00 | 58 | 1009.9 |
| 20260904190009 | 80 | 318 | 1.0 | 4.0 | 0.00 | 0.00 | 0.00 | 57 | 1009.8 |
| 20260904185504 | 80 | 88 | 2.0 | 4.0 | 0.00 | 0.00 | 0.00 | 55 | 1009.9 |
| 20260904185004 | 80 | 346 | 1.0 | 6.0 | 0.00 | 0.00 | 0.00 | 56 | 1009.9 |
| 20260904184504 | 80 | 344 | 1.0 | 6.0 | 0.00 | 0.00 | 0.00 | 56 | 1010.0 |
| 20260904184004 | 81 | 4 | 3.0 | 7.0 | 0.00 | 0.00 | 0.00 | 54 | 1010.0 |
| 20260904183504 | 81 | 340 | 3.0 | 10.0 | 0.00 | 0.00 | 0.00 | 53 | 1010.1 |
| 20260904183011 | 82 | 349 | 3.0 | 10.0 | 0.00 | 0.00 | 0.00 | 51 | 1010.2 |
| 20260904182508 | 83 | 323 | 1.0 | 5.0 | 0.00 | 0.00 | 0.00 | 54 | 1010.3 |
| 20260904182010 | 82 | 230 | 1.0 | 8.0 | 0.00 | 0.00 | 0.00 | 55 | 1010.3 |
| 20260904181514 | 82 | 287 | 2.0 | 8.0 | 0.00 | 0.00 | 0.00 | 52 | 1010.3 |
| 20260904181008 | 81 | 311 | 3.0 | 10.0 | 0.00 | 0.00 | 0.00 | 55 | 1010.2 |
| 20260904180510 | 81 | 2 | 5.0 | 10.0 | 0.00 | 0.00 | 0.00 | 54 | 1010.2 |
| 20260904180023 | 80 | 347 | 3.0 | 9.0 | 0.00 | 0.00 | 0.00 | 56 | 1010.2 |
| 20260904175512 | 80 | 281 | 3.0 | 16.0 | 0.00 | 0.00 | 0.00 | 55 | 1010.2 |
| 20260904175014 | 80 | 349 | 3.0 | 16.0 | 0.00 | 0.00 | 0.00 | 57 | 1010.2 |
| 20260904174528 | 81 | 296 | 4.0 | 7.0 | 0.00 | 0.00 | 0.00 | 55 | 1010.0 |
| 20260904174004 | 81 | 305 | 3.0 | 8.0 | 0.00 | 0.00 | 0.00 | 56 | 1010.0 |
| 20260904173503 | 80 | 335 | 4.0 | 8.0 | 0.00 | 0.00 | 0.00 | 55 | 1009.9 |
| 20260904173007 | 80 | 328 | 3.0 | 9.0 | 0.00 | 0.00 | 0.00 | 57 | 1009.9 |
| 20260904172505 | 80 | 294 | 5.0 | 9.0 | 0.00 | 0.00 | 0.00 | 55 | 1010.0 |
| 20260904172003 | 81 | 349 | 4.0 | 9.0 | 0.00 | 0.00 | 0.00 | 54 | 1010.0 |
| 20260904171512 | 81 | 342 | 4.0 | 7.0 | 0.00 | 0.00 | 0.00 | 55 | 1010.1 |
| 20260904171007 | 81 | 23 | 2.0 | 5.0 | 0.00 | 0.00 | 0.00 | 60 | 1010.2 |
| 20260904170508 | 80 | 338 | 0.0 | 8.0 | 0.00 | 0.00 | 0.00 | 60 | 1010.2 |
| 20260904170018 | 79 | 307 | 2.0 | 8.0 | 0.00 | 0.00 | 0.00 | 61 | 1010.2 |
| 20260904165511 | 80 | 347 | 4.0 | 8.0 | 0.00 | 0.00 | 0.00 | 58 | 1010.1 |
| 20260904165013 | 79 | 293 | 2.0 | 7.0 | 0.00 | 0.00 | 0.00 | 59 | 1010.2 |
| 20260904164529 | 79 | 330 | 3.0 | 7.0 | 0.00 | 0.00 | 0.00 | 60 | 1010.2 |
| 20260904164012 | 79 | 346 | 2.0 | 6.0 | 0.00 | 0.00 | 0.00 | 62 | 1010.2 |
| 20260904163514 | 80 | 340 | 1.0 | 7.0 | 0.00 | 0.00 | 0.00 | 61 | 1010.3 |
| 20260904163029 | 81 | 10 | 2.0 | 7.0 | 0.00 | 0.00 | 0.00 | 60 | 1010.4 |
| 20260904162505 | 81 | 292 | 1.0 | 3.0 | 0.00 | 0.00 | 0.00 | 63 | 1010.3 |
| 20260904162005 | 80 | 219 | 1.0 | 4.0 | 0.00 | 0.00 | 0.00 | 63 | 1010.4 |
| 20260904161508 | 80 | 307 | 1.0 | 4.0 | 0.00 | 0.00 | 0.00 | 64 | 1010.5 |
| 20260904161004 | 79 | 280 | 0.0 | 2.0 | 0.00 | 0.00 | 0.00 | 66 | 1010.6 |
| 20260904160510 | 79 | 292 | 0.0 | 5.0 | 0.00 | 0.00 | 0.00 | 67 | 1010.6 |
| 20260904160020 | 79 | 288 | 0.0 | 5.0 | 0.00 | 0.00 | 0.00 | 67 | 1010.7 |
| 20260904155508 | 79 | 328 | 2.0 | 6.0 | 0.00 | 0.00 | 0.00 | 66 | 1010.8 |
| 20260904155010 | 79 | 353 | 3.0 | 6.0 | 0.00 | 0.00 | 0.00 | 66 | 1010.7 |
| 20260904154528 | 79 | 25 | 1.0 | 8.0 | 0.00 | 0.00 | 0.00 | 69 | 1010.8 |
| 20260904154012 | 79 | 1 | 2.0 | 8.0 | 0.00 | 0.00 | 0.00 | 68 | 1011.0 |
| 20260904153512 | 78 | 252 | 1.0 | 8.0 | 0.00 | 0.00 | 0.00 | 69 | 1010.9 |
| 20260904153027 | 78 | 2 | 3.0 | 8.0 | 0.00 | 0.00 | 0.00 | 68 | 1011.0 |
| 20260904152514 | 78 | 358 | 2.0 | 5.0 | 0.00 | 0.00 | 0.00 | 68 | 1011.1 |
| 20260904152014 | 78 | 12 | 3.0 | 5.0 | 0.00 | 0.00 | 0.00 | 70 | 1011.1 |
| 20260904151533 | 79 | 340 | 1.0 | 2.0 | 0.00 | 0.00 | 0.00 | 71 | 1011.2 |
| 20260904151015 | 78 | 255 | 0.0 | 2.0 | 0.00 | 0.00 | 0.00 | 72 | 1011.3 |